Regional Weather Roundup
Issued by NWS

Home | Current Version | Previous Version | Graphics & Text | Print | Product List | Glossary On
Versions: 1 2 3 4 5 6 7 8 9 10 11 12 13 14 15 16 17 18 19 20 21 22 23 24 25 26 27 28 29 30 31 32 33 34 35 36 37 38 39 40 41 42 43 44 45 46 47 48 49 50
000
ASUS43 KOAX 311910
RWRNE

WEATHER ROUNDUP FOR NEBRASKA
NATIONAL WEATHER SERVICE OMAHA NE
100 PM CST SAT JAN 31 2015

NOTES: SATELLITE DATA IS BEING USED TO AUGMENT CLOUD COVER ABOVE
       12000 FEET.
       "FAIR" INDICATES FEW OR NO CLOUDS BELOW 12,000 FEET WITH NO
       SIGNIFICANT WEATHER AND/OR OBSTRUCTIONS TO VISIBILITY.

  * THESE STATIONS DO NOT REPORT WEATHER SUCH AS RAIN...SNOW OR FOG.

NEZ001>004-019>022-054>056-312000-
NEBRASKA PANHANDLE

CITY           SKY/WX    TMP DP  RH WIND       PRES   REMARKS
SCOTTSBLUFF    SNOW      32  31  96 W8        29.89F VSB 1/4 WCI  25
ALLIANCE       SNOW      31  29  92 N9        29.88F VSB 1/4 WCI  23
CHADRON        CLOUDY    33  26  75 NE10      29.94F WCI  25
KIMBALL        LGT SNOW  32  32  98 NW6       29.84F WCI  27
SIDNEY         LGT SNOW  33  30  88 N8        29.86F VSB 1   WCI  26
$$

NEZ057>060-069>072-079>082-312000-
SOUTHWEST NEBRASKA

CITY           SKY/WX    TMP DP  RH WIND       PRES   REMARKS
NORTH PLATTE   CLOUDY    35  31  85 E7        29.89F WCI  29
IMPERIAL       CLOUDY    33  32  96 CALM      29.87F FOG
LEXINGTON      DRIZZLE   34  33  96 SE6       29.92F WCI  29
MCCOOK         FOG       36  34  92 E6        29.88F VSB 3/4 WCI  31
OGALLALA       CLOUDY    34  34  99 NE3       29.88F FOG
$$

NEZ005>010-023>029-035>040-094-312000-
NORTH CENTRAL NEBRASKA

CITY           SKY/WX    TMP DP  RH WIND       PRES   REMARKS
VALENTINE      FOG       25  23  92 NE16      30.00F VSB 1/4 WCI  12
AINSWORTH      FOG       26  26  98 NE13      29.98F VSB 1/4 WCI  15
BROKEN BOW     LGT SNOW  35  32  88 E7        29.92F FOG     WCI  29
O`NEILL        CLOUDY    30  29  95 N9        30.00F FOG     WCI  22
ORD            CLOUDY    35  31  85 SE6       29.95F WCI  30
THEDFORD       DRIZZLE   35  35  99 NE7       29.92F WCI  29
$$

NEZ041-046>049-061>064-073>077-083>087-312000-
SOUTH CENTRAL NEBRASKA

CITY           SKY/WX    TMP DP  RH WIND       PRES   REMARKS
GRAND ISLAND   LGT SNOW  33  31  92 S12       29.99F FOG     WCI  24
AURORA         LGT SNOW  33  33 100 SE12      29.99F WCI  24
HASTINGS       LGT SNOW  32  30  92 S10       29.96F FOG     WCI  24
HEBRON         LGT SNOW  33  32  95 S12       30.01F WCI  24
HOLDREGE       LGT RAIN  32  32  98 SE9       29.92F VSB 1   WCI  24
KEARNEY *      CLOUDY    34  30  86 SE8       29.94F WCI  27
YORK           LGT SNOW  32  32 100 S10       30.01F VSB 3/4 WCI  24
$$

NEZ011>018-030>034-042>045-312000-
NORTHEAST NEBRASKA

CITY           SKY/WX    TMP DP  RH WIND       PRES   REMARKS
NORFOLK        CLOUDY    36  33  89 S13       30.01F WCI  27
ALBION         CLOUDY    35  31  86 S10       30.00F WCI  27
BLAIR          LGT SNOW  34  32  94 S8        30.07F WCI  27
COLUMBUS *     CLOUDY    36  28  75 S12       30.04F WCI  27
FREMONT        LGT SNOW  35  34  97 SE7       30.06F WCI  29
TEKAMAH        LGT SNOW  35  33  92 S9        30.08F FOG     WCI  28
WAYNE          CLOUDY    36  35  95 S9        30.04F FOG     WCI  29
$$

NEZ050>053-065>068-078-088>093-312000-
SOUTHEAST NEBRASKA

CITY           SKY/WX    TMP DP  RH WIND       PRES   REMARKS
LINCOLN        LGT SNOW  33  32  96 SE10      30.05F FOG     WCI  25
OMAHA EPPLEY   LGT SNOW  34  33  96 SE10      30.09F FOG     WCI  26
BEATRICE       LGT SNOW  33  32  99 SE12      30.05F WCI  24
FALLS CITY     LGT SNOW  33  33 100 SE8       30.13F VSB 1   WCI  26
NEBRASKA CITY  LGT SNOW  33  33 100 S14       30.09F WCI  23
PLATTSMOUTH    LGT SNOW  33  32  96 S9        30.08F WCI  25
$$

NEZ044-045-051>053-067-312000-
OMAHA AREA

CITY           SKY/WX    TMP DP  RH WIND       PRES   REMARKS
OMAHA EPPLEY   LGT SNOW  34  33  96 SE10      30.09F FOG     WCI  26
BLAIR          LGT SNOW  34  32  94 S8        30.07F WCI  27
FREMONT        LGT SNOW  35  34  97 SE7       30.06F WCI  29
MILLARD        LGT SNOW  33  32  95 SE6       30.08F WCI  28
OFFUTT AFB     LGT SNOW  32  32 100 E6        30.08F FOG     WCI  26
PLATTSMOUTH    LGT SNOW  33  32  96 S9        30.08F WCI  25
WAHOO          LGT SNOW  33  32  94 SE7       30.06F WCI  27
$$



USA.gov is the U.S. government's official web portal to all federal, state and local government web resources and services.